NORTHEAST SUFFOLK  -  Coastal Flood Statement Coastal Flood Statement        NORTHERN NASSAU  -  Coastal Flood Statement Coastal Flood Statement     Coastal Flood Statement Coastal Flood Statement        NORTHERN QUEENS  -  Coastal Flood Statement Coastal Flood Statement        NORTHWEST SUFFOLK  -  Coastal Flood Statement Coastal Flood Statement        SOUTHEAST SUFFOLK  -  Coastal Flood Statement Coastal Flood Statement        SOUTHERN NASSAU  -  Coastal Flood Statement Coastal Flood Statement     Coastal Flood Statement Coastal Flood Statement        SOUTHERN QUEENS  -  Coastal Flood Statement Coastal Flood Statement        SOUTHWEST SUFFOLK  -  Coastal Flood Statement Coastal Flood Statement      

Active alerts

Northern Queens
  Details for Northern Queens Coastal Flood Statement
Southern Queens
  Details for Southern Queens Coastal Flood Statement
Northern Nassau
  Details for Northern Nassau Coastal Flood Statement  +1 additional alert
Southern Nassau
  Details for Southern Nassau Coastal Flood Statement  +1 additional alert
Northwest Suffolk
  Details for Northwest Suffolk Coastal Flood Statement
Southwest Suffolk
  Details for Southwest Suffolk Coastal Flood Statement
Northeast Suffolk
  Details for Northeast Suffolk Coastal Flood Statement
Southeast Suffolk
  Details for Southeast Suffolk Coastal Flood Statement


WXM80 ListenWXM80 Stop

You find our weather info also at:

UK Metoffice

WeatherCloud

Weather Underground

Northeastern Weather Network

AWEKAS

Citizen Weather Observer Program (CWOP)

HAMweather, WeatherForYou, PWS Weather


Weather Underground History page Text

Daily Summary for October 1, 2017 Units:  English    Metric   Both
« Previous Day
Next Day »
Daily Weekly Monthly Yearly Custom
  High: Low: Average:
Temperature: 70.3 °F 49.7 °F 58.6 °F
Dew Point: 51.7 °F 46.0 °F 49 °F
Humidity: 89 % 45 % 73 %
Wind Speed: 6.3 mph 0.0 mph 1.9 mph
Wind Gust: 11.5 mph - -
Wind:- - SE
Pressure: 30.27 in 30.14 in -
Precipitation: 0.00 in    
Historical Graphs
 
 
Tabular Data for October 1, 2017
Time Temperature Dew Point Pressure Wind Wind Speed Wind Gust Humidity Rainfall Rate (Hourly)
00:02 55.1 °F 51.0 °F 30.21 in ENE 4.5 mph 4.5 mph 86 % 0.00 in
00:07 55.1 °F 51.0 °F 30.21 in ENE 5.3 mph 11.5 mph 86 % 0.00 in
00:12 55.1 °F 51.0 °F 30.21 in East 4.0 mph 7.0 mph 86 % 0.00 in
00:17 55.1 °F 50.7 °F 30.21 in NE 3.3 mph 4.6 mph 85 % 0.00 in
00:22 55.2 °F 51.1 °F 30.21 in NE 3.4 mph 7.0 mph 86 % 0.00 in
00:27 55.2 °F 51.1 °F 30.22 in NNE 3.9 mph 5.8 mph 86 % 0.00 in
00:33 55.2 °F 51.1 °F 30.21 in NNE 3.2 mph 6.9 mph 86 % 0.00 in
00:38 55.2 °F 51.1 °F 30.22 in NNE 4.1 mph 8.1 mph 86 % 0.00 in
00:43 55.2 °F 51.1 °F 30.21 in NNE 2.7 mph 4.6 mph 86 % 0.00 in
00:48 55.3 °F 51.2 °F 30.22 in ENE 3.1 mph 8.1 mph 86 % 0.00 in
00:53 55.2 °F 51.1 °F 30.21 in NE 5.0 mph 8.1 mph 86 % 0.00 in
00:58 55.2 °F 51.1 °F 30.21 in NE 3.6 mph 8.1 mph 86 % 0.00 in
01:03 55.2 °F 51.1 °F 30.21 in NNE 2.1 mph 6.9 mph 86 % 0.00 in
01:08 55.1 °F 51.0 °F 30.22 in North 5.2 mph 9.2 mph 86 % 0.00 in
01:13 55.2 °F 51.1 °F 30.22 in NNE 4.9 mph 8.1 mph 86 % 0.00 in
01:18 55.1 °F 51.0 °F 30.21 in NNE 2.3 mph 4.6 mph 86 % 0.00 in
01:23 55.1 °F 51.0 °F 30.22 in NE 3.7 mph 5.8 mph 86 % 0.00 in
01:28 55.0 °F 50.9 °F 30.21 in North 2.7 mph 5.0 mph 86 % 0.00 in
01:33 55.0 °F 50.9 °F 30.22 in ENE 3.5 mph 6.9 mph 86 % 0.00 in
01:38 54.9 °F 50.8 °F 30.22 in NE 3.8 mph 10.4 mph 86 % 0.00 in
01:44 54.9 °F 50.8 °F 30.22 in ENE 3.5 mph 8.1 mph 86 % 0.00 in
01:49 54.8 °F 50.7 °F 30.22 in ENE 3.3 mph 6.9 mph 86 % 0.00 in
01:54 54.8 °F 50.7 °F 30.22 in ENE 3.8 mph 5.8 mph 86 % 0.00 in
01:59 54.8 °F 50.7 °F 30.22 in ENE 4.2 mph 8.0 mph 86 % 0.00 in
02:04 54.8 °F 50.7 °F 30.22 in ENE 3.6 mph 9.2 mph 86 % 0.00 in
02:09 54.9 °F 50.8 °F 30.22 in NE 2.4 mph 8.1 mph 86 % 0.00 in
02:14 54.8 °F 50.7 °F 30.22 in NE 2.4 mph 4.6 mph 86 % 0.00 in
02:19 54.9 °F 50.8 °F 30.22 in ENE 3.2 mph 9.2 mph 86 % 0.00 in
02:24 54.9 °F 50.8 °F 30.22 in ENE 0.4 mph 2.3 mph 86 % 0.00 in
02:29 54.9 °F 50.8 °F 30.22 in NE 1.0 mph 2.3 mph 86 % 0.00 in
02:34 54.9 °F 50.8 °F 30.22 in NE 2.9 mph 3.5 mph 86 % 0.00 in
02:39 54.8 °F 50.7 °F 30.22 in NE 1.4 mph 5.0 mph 86 % 0.00 in
02:44 54.9 °F 50.8 °F 30.22 in NNE 1.0 mph 4.6 mph 86 % 0.00 in
02:49 54.9 °F 50.8 °F 30.22 in NE 1.5 mph 3.5 mph 86 % 0.00 in
02:54 54.9 °F 50.5 °F 30.22 in ENE 1.1 mph 3.5 mph 85 % 0.00 in
02:59 54.9 °F 50.8 °F 30.22 in North 4.0 mph 10.4 mph 86 % 0.00 in
03:04 54.9 °F 50.8 °F 30.22 in NNE 3.3 mph 4.6 mph 86 % 0.00 in
03:09 54.8 °F 50.7 °F 30.22 in NNE 3.5 mph 5.8 mph 86 % 0.00 in
03:14 54.7 °F 50.6 °F 30.22 in NE 4.6 mph 7.0 mph 86 % 0.00 in
03:19 54.6 °F 50.2 °F 30.22 in NNE 4.7 mph 5.8 mph 85 % 0.00 in
03:24 54.5 °F 50.1 °F 30.22 in North 2.8 mph 6.0 mph 85 % 0.00 in
03:29 54.3 °F 49.9 °F 30.22 in NNE 6.3 mph 8.1 mph 85 % 0.00 in
03:34 54.2 °F 49.8 °F 30.22 in ENE 3.0 mph 5.8 mph 85 % 0.00 in
03:39 54.1 °F 49.7 °F 30.22 in NNE 0.7 mph 3.5 mph 85 % 0.00 in
03:45 54.0 °F 49.6 °F 30.22 in NNE 3.2 mph 6.9 mph 85 % 0.00 in
03:50 53.8 °F 49.4 °F 30.22 in NNE 2.1 mph 4.6 mph 85 % 0.00 in
03:55 53.7 °F 49.6 °F 30.22 in NE 1.8 mph 4.6 mph 86 % 0.00 in
04:00 53.5 °F 49.4 °F 30.22 in NNE 3.0 mph 6.9 mph 86 % 0.00 in
04:05 53.4 °F 49.0 °F 30.22 in NE 0.6 mph 4.6 mph 85 % 0.00 in
04:07 53.4 °F 49.0 °F 30.22 in NNE 0.7 mph 3.5 mph 85 % 0.00 in
04:12 53.3 °F 48.9 °F 30.22 in ENE 1.6 mph 4.6 mph 85 % 0.00 in
04:17 53.3 °F 48.9 °F 30.22 in NNE 2.2 mph 4.6 mph 85 % 0.00 in
04:22 53.2 °F 49.1 °F 30.22 in North 3.6 mph 6.0 mph 86 % 0.00 in
04:27 53.2 °F 49.1 °F 30.22 in ENE 2.8 mph 4.6 mph 86 % 0.00 in
04:28 53.2 °F 49.1 °F 30.22 in NE 3.9 mph 6.9 mph 86 % 0.00 in
04:33 53.1 °F 49.0 °F 30.22 in NNE 1.6 mph 5.8 mph 86 % 0.00 in
04:38 53.1 °F 49.3 °F 30.22 in North 5.2 mph 8.1 mph 87 % 0.00 in
04:43 53.0 °F 48.9 °F 30.22 in NE 1.7 mph 4.6 mph 86 % 0.00 in
04:48 53.0 °F 49.2 °F 30.22 in NE 1.6 mph 4.6 mph 87 % 0.00 in
04:53 53.0 °F 49.2 °F 30.22 in NE 2.6 mph 4.6 mph 87 % 0.00 in
04:58 52.9 °F 49.1 °F 30.22 in NE 4.3 mph 5.8 mph 87 % 0.00 in
05:03 52.9 °F 49.1 °F 30.22 in NNE 1.7 mph 4.6 mph 87 % 0.00 in
05:08 52.8 °F 49.0 °F 30.23 in East 1.3 mph 5.0 mph 87 % 0.00 in
05:13 52.8 °F 49.3 °F 30.23 in NE 4.2 mph 9.2 mph 88 % 0.00 in
05:18 52.8 °F 49.3 °F 30.22 in NNE 5.2 mph 8.1 mph 88 % 0.00 in
05:23 52.8 °F 49.3 °F 30.23 in North 3.0 mph 5.0 mph 88 % 0.00 in
05:28 52.8 °F 49.3 °F 30.23 in NE 5.5 mph 10.4 mph 88 % 0.00 in
05:33 52.8 °F 49.3 °F 30.23 in NNE 3.2 mph 8.0 mph 88 % 0.00 in
05:38 52.8 °F 49.3 °F 30.23 in NNE 2.7 mph 3.5 mph 88 % 0.00 in
05:43 52.8 °F 49.3 °F 30.23 in NNE 2.3 mph 6.0 mph 88 % 0.00 in
05:48 52.7 °F 49.2 °F 30.23 in NNE 2.8 mph 4.6 mph 88 % 0.00 in
05:53 52.7 °F 49.2 °F 30.23 in NNE 2.9 mph 6.0 mph 88 % 0.00 in
05:58 52.7 °F 49.2 °F 30.23 in NE 0.9 mph 3.5 mph 88 % 0.00 in
06:03 52.8 °F 49.3 °F 30.23 in NNW 2.5 mph 5.8 mph 88 % 0.00 in
06:08 52.8 °F 49.3 °F 30.23 in NNE 2.6 mph 5.8 mph 88 % 0.00 in
06:14 52.8 °F 49.3 °F 30.23 in ENE 0.6 mph 5.8 mph 88 % 0.00 in
06:19 52.8 °F 49.3 °F 30.23 in NE 2.1 mph 6.9 mph 88 % 0.00 in
06:24 52.9 °F 49.4 °F 30.23 in North 3.1 mph 6.9 mph 88 % 0.00 in
06:29 53.0 °F 49.2 °F 30.23 in NNE 0.3 mph 5.8 mph 87 % 0.00 in
06:34 53.0 °F 49.2 °F 30.23 in NE 3.4 mph 5.0 mph 87 % 0.00 in
06:39 53.2 °F 49.4 °F 30.23 in NE 1.3 mph 6.9 mph 87 % 0.00 in
06:44 53.2 °F 49.4 °F 30.23 in ENE 1.3 mph 6.9 mph 87 % 0.00 in
06:46 53.3 °F 49.5 °F 30.24 in NNE 1.4 mph 4.6 mph 87 % 0.00 in
06:51 53.3 °F 49.5 °F 30.24 in NNE 3.4 mph 5.8 mph 87 % 0.00 in
06:56 53.4 °F 49.6 °F 30.24 in NNE 3.2 mph 3.5 mph 87 % 0.00 in
07:01 53.5 °F 49.7 °F 30.24 in NE 2.9 mph 5.0 mph 87 % 0.00 in
07:06 53.5 °F 49.7 °F 30.24 in NNE 2.0 mph 6.0 mph 87 % 0.00 in
07:11 53.6 °F 49.8 °F 30.24 in North 3.2 mph 5.0 mph 87 % 0.00 in
07:16 53.7 °F 49.9 °F 30.24 in NNE 3.0 mph 8.0 mph 87 % 0.00 in
07:21 53.8 °F 49.7 °F 30.24 in NNE 3.0 mph 9.0 mph 86 % 0.00 in
07:26 53.9 °F 49.2 °F 30.24 in NNE 3.0 mph 7.0 mph 84 % 0.00 in
07:31 54.1 °F 49.1 °F 30.24 in NE 2.0 mph 6.0 mph 83 % 0.00 in
07:41 54.5 °F 49.1 °F 30.25 in NNE 5.0 mph 9.0 mph 82 % 0.00 in
07:46 54.7 °F 49.0 °F 30.25 in NE 2.0 mph 6.0 mph 81 % 0.00 in
07:51 54.9 °F 49.2 °F 30.25 in NNE 4.9 mph 4.9 mph 81 % 0.00 in
07:56 55.0 °F 49.3 °F 30.25 in NNE 3.0 mph 8.0 mph 81 % 0.00 in
08:01 55.1 °F 49.4 °F 30.25 in ENE 2.5 mph 6.9 mph 81 % 0.00 in
08:06 55.1 °F 49.4 °F 30.25 in ENE 1.4 mph 4.0 mph 81 % 0.00 in
08:11 55.2 °F 49.5 °F 30.25 in ENE 2.9 mph 4.6 mph 81 % 0.00 in
08:16 55.2 °F 48.8 °F 30.25 in NNE 4.1 mph 8.1 mph 79 % 0.00 in
08:21 55.4 °F 48.3 °F 30.25 in ENE 3.9 mph 10.0 mph 77 % 0.00 in
08:26 55.6 °F 48.8 °F 30.25 in North 1.9 mph 6.9 mph 78 % 0.00 in
08:31 55.7 °F 49.3 °F 30.25 in NE 3.1 mph 5.8 mph 79 % 0.00 in
08:36 55.8 °F 49.4 °F 30.25 in NE 1.3 mph 6.9 mph 79 % 0.00 in
08:41 55.8 °F 49.0 °F 30.26 in NE 3.0 mph 4.6 mph 78 % 0.00 in
08:46 55.9 °F 48.8 °F 30.26 in NE 2.9 mph 6.9 mph 77 % 0.00 in
08:51 56.0 °F 48.5 °F 30.26 in NE 4.0 mph 8.1 mph 76 % 0.00 in
08:56 56.0 °F 48.5 °F 30.26 in NE 1.0 mph 8.1 mph 76 % 0.00 in
09:01 56.1 °F 48.3 °F 30.26 in North 2.4 mph 7.0 mph 75 % 0.00 in
09:06 56.1 °F 48.3 °F 30.26 in NE 2.0 mph 6.9 mph 75 % 0.00 in
09:11 56.2 °F 48.4 °F 30.26 in NNE 5.5 mph 9.2 mph 75 % 0.00 in
09:16 56.2 °F 48.4 °F 30.26 in North 4.9 mph 8.1 mph 75 % 0.00 in
09:21 56.3 °F 48.8 °F 30.26 in NE 2.9 mph 4.6 mph 76 % 0.00 in
09:26 56.4 °F 47.9 °F 30.27 in NNE 3.5 mph 6.9 mph 73 % 0.00 in
09:31 56.6 °F 48.0 °F 30.27 in ENE 5.0 mph 9.0 mph 73 % 0.00 in
09:36 56.8 °F 47.5 °F 30.27 in NNE 5.3 mph 9.2 mph 71 % 0.00 in
09:41 56.9 °F 47.6 °F 30.27 in ENE 6.0 mph 11.5 mph 71 % 0.00 in
09:46 57.0 °F 47.3 °F 30.27 in NE 2.8 mph 4.6 mph 70 % 0.00 in
09:51 57.2 °F 46.3 °F 30.27 in NNE 2.2 mph 8.1 mph 67 % 0.00 in
09:56 57.3 °F 47.2 °F 30.27 in NNW 4.0 mph 8.1 mph 69 % 0.00 in
10:01 57.5 °F 47.4 °F 30.27 in NE 4.4 mph 9.2 mph 69 % 0.00 in
10:06 57.6 °F 47.5 °F 30.27 in East 4.4 mph 8.1 mph 69 % 0.00 in
10:11 57.8 °F 47.7 °F 30.27 in ENE 4.6 mph 8.1 mph 69 % 0.00 in
10:16 58.1 °F 48.0 °F 30.27 in NNW 3.8 mph 8.1 mph 69 % 0.00 in
10:21 58.5 °F 48.4 °F 30.27 in NE 5.8 mph 10.4 mph 69 % 0.00 in
10:26 58.7 °F 48.6 °F 30.27 in ENE 2.8 mph 5.0 mph 69 % 0.00 in
10:31 58.9 °F 48.7 °F 30.27 in NE 1.7 mph 4.6 mph 69 % 0.00 in
10:36 59.1 °F 48.5 °F 30.27 in NNE 2.5 mph 3.5 mph 68 % 0.00 in
10:41 59.1 °F 48.5 °F 30.27 in NE 4.6 mph 5.8 mph 68 % 0.00 in
10:46 59.2 °F 48.6 °F 30.26 in ENE 3.4 mph 4.6 mph 68 % 0.00 in
10:52 59.2 °F 48.2 °F 30.26 in ENE 3.3 mph 5.8 mph 67 % 0.00 in
10:57 59.3 °F 48.7 °F 30.26 in ENE 3.6 mph 4.6 mph 68 % 0.00 in
11:02 59.6 °F 48.6 °F 30.26 in NE 2.4 mph 4.6 mph 67 % 0.00 in
11:07 60.2 °F 49.2 °F 30.26 in ENE 3.4 mph 7.0 mph 67 % 0.00 in
11:12 61.1 °F 50.1 °F 30.26 in NE 2.8 mph 5.8 mph 67 % 0.00 in
11:17 62.0 °F 50.5 °F 30.26 in NE 1.6 mph 4.0 mph 66 % 0.00 in
11:22 63.0 °F 50.2 °F 30.25 in NNE 2.4 mph 3.5 mph 63 % 0.00 in
11:28 64.1 °F 50.4 °F 30.25 in ENE 3.0 mph 4.6 mph 61 % 0.00 in
11:33 64.9 °F 51.1 °F 30.25 in NE 1.9 mph 3.5 mph 61 % 0.00 in
11:38 65.5 °F 48.9 °F 30.25 in North 1.4 mph 5.8 mph 55 % 0.00 in
11:43 66.1 °F 50.4 °F 30.25 in NNW 2.7 mph 5.8 mph 57 % 0.00 in
11:48 66.6 °F 50.9 °F 30.25 in NNW 1.1 mph 3.5 mph 57 % 0.00 in
11:53 67.3 °F 50.1 °F 30.25 in NE 2.1 mph 3.5 mph 54 % 0.00 in
11:58 67.6 °F 51.3 °F 30.25 in ENE 1.4 mph 4.0 mph 56 % 0.00 in
12:03 68.2 °F 50.9 °F 30.25 in NNW 3.6 mph 5.0 mph 54 % 0.00 in
12:08 68.5 °F 50.7 °F 30.25 in NNW 1.3 mph 4.6 mph 53 % 0.00 in
12:13 69.0 °F 51.7 °F 30.25 in WNW 1.9 mph 2.3 mph 54 % 0.00 in
12:18 69.2 °F 51.3 °F 30.24 in NNE 2.2 mph 4.6 mph 53 % 0.00 in
12:23 69.3 °F 51.4 °F 30.24 in NNW 2.0 mph 4.6 mph 53 % 0.00 in
12:28 69.2 °F 49.2 °F 30.24 in Calm   1.2 mph 49 % 0.00 in
12:33 69.3 °F 48.8 °F 30.24 in WNW 1.5 mph 4.0 mph 48 % 0.00 in
12:38 69.5 °F 50.6 °F 30.24 in North 0.6 mph 3.5 mph 51 % 0.00 in
12:43 69.4 °F 50.5 °F 30.24 in NE 1.0 mph 3.5 mph 51 % 0.00 in
12:48 69.5 °F 48.9 °F 30.24 in West 1.0 mph 3.5 mph 48 % 0.00 in
12:53 69.5 °F 51.1 °F 30.23 in NNE 2.6 mph 5.0 mph 52 % 0.00 in
12:58 69.6 °F 49.0 °F 30.23 in WNW 1.5 mph 3.5 mph 48 % 0.00 in
13:03 69.6 °F 49.6 °F 30.23 in WSW 2.9 mph 5.8 mph 49 % 0.00 in
13:08 69.6 °F 49.6 °F 30.23 in SW 0.8 mph 4.6 mph 49 % 0.00 in
13:13 69.6 °F 49.0 °F 30.22 in WSW 1.2 mph 3.0 mph 48 % 0.00 in
13:18 69.8 °F 50.9 °F 30.22 in Calm   1.2 mph 51 % 0.00 in
13:23 69.8 °F 48.7 °F 30.22 in North 0.4 mph 2.3 mph 47 % 0.00 in
13:28 69.7 °F 48.6 °F 30.21 in NNW 1.7 mph 2.0 mph 47 % 0.00 in
13:33 69.8 °F 49.2 °F 30.21 in NNE 3.0 mph 4.6 mph 48 % 0.00 in
13:38 69.7 °F 49.1 °F 30.21 in WNW 0.9 mph 3.5 mph 48 % 0.00 in
13:43 69.6 °F 47.3 °F 30.21 in West 2.6 mph 3.5 mph 45 % 0.00 in
13:48 69.7 °F 50.8 °F 30.20 in NW 0.2 mph 2.0 mph 51 % 0.00 in
13:50 69.7 °F 49.1 °F 30.20 in NW 0.8 mph 2.3 mph 48 % 0.00 in
13:55 69.8 °F 50.9 °F 30.20 in Calm     51 % 0.00 in
14:00 69.9 °F 50.4 °F 30.20 in NE 2.2 mph 4.6 mph 50 % 0.00 in
14:05 69.7 °F 48.6 °F 30.20 in NW 0.4 mph 2.3 mph 47 % 0.00 in
14:10 69.8 °F 49.2 °F 30.19 in WNW 1.8 mph 4.6 mph 48 % 0.00 in
14:15 69.9 °F 50.9 °F 30.19 in WSW 2.9 mph 5.0 mph 51 % 0.00 in
14:20 70.0 °F 50.0 °F 30.19 in West 3.6 mph 5.8 mph 49 % 0.00 in
14:25 70.0 °F 50.5 °F 30.19 in NNW 1.3 mph 4.6 mph 50 % 0.00 in
14:30 70.1 °F 51.1 °F 30.19 in West 1.2 mph 3.5 mph 51 % 0.00 in
14:35 70.1 °F 49.5 °F 30.19 in WNW 1.9 mph 3.5 mph 48 % 0.00 in
14:40 70.0 °F 48.8 °F 30.18 in WSW 1.1 mph 3.5 mph 47 % 0.00 in
14:45 70.1 °F 49.5 °F 30.18 in SW 0.2 mph 2.0 mph 48 % 0.00 in
14:50 70.1 °F 50.6 °F 30.18 in SW 0.1 mph 1.2 mph 50 % 0.00 in
14:55 70.2 °F 50.1 °F 30.18 in SW 0.7 mph 2.3 mph 49 % 0.00 in
15:00 70.3 °F 49.7 °F 30.18 in WSW 1.4 mph 3.5 mph 48 % 0.00 in
15:05 70.2 °F 49.0 °F 30.17 in SW 0.2 mph 1.2 mph 47 % 0.00 in
15:10 70.2 °F 49.0 °F 30.17 in West 2.4 mph 3.5 mph 47 % 0.00 in
15:15 70.2 °F 47.9 °F 30.17 in WSW 3.9 mph 5.8 mph 45 % 0.00 in
15:20 70.1 °F 48.4 °F 30.17 in WNW 1.0 mph 3.5 mph 46 % 0.00 in
15:25 69.7 °F 48.6 °F 30.17 in NNW 0.8 mph 2.3 mph 47 % 0.00 in
15:30 69.5 °F 47.2 °F 30.17 in West 1.4 mph 3.5 mph 45 % 0.00 in
15:35 69.3 °F 47.0 °F 30.17 in West 1.8 mph 3.5 mph 45 % 0.00 in
15:40 69.0 °F 47.4 °F 30.17 in WSW 1.5 mph 4.6 mph 46 % 0.00 in
15:45 68.8 °F 46.6 °F 30.17 in WNW 2.4 mph 3.5 mph 45 % 0.00 in
15:50 68.5 °F 46.9 °F 30.16 in West 3.1 mph 5.0 mph 46 % 0.00 in
15:56 68.2 °F 47.2 °F 30.16 in WNW 1.0 mph 3.5 mph 47 % 0.00 in
16:01 67.9 °F 46.9 °F 30.16 in West 0.2 mph 3.5 mph 47 % 0.00 in
16:06 67.6 °F 47.2 °F 30.16 in WNW 0.1 mph 1.2 mph 48 % 0.00 in
16:11 67.4 °F 47.6 °F 30.16 in WSW 0.8 mph 3.5 mph 49 % 0.00 in
16:16 67.1 °F 47.3 °F 30.16 in SW 2.0 mph 5.8 mph 49 % 0.00 in
16:21 66.9 °F 47.6 °F 30.15 in SSW 2.2 mph 3.5 mph 50 % 0.00 in
16:24 66.7 °F 47.5 °F 30.15 in SSW 3.3 mph 5.0 mph 50 % 0.00 in
16:29 66.5 °F 47.3 °F 30.15 in West 0.3 mph 5.8 mph 50 % 0.00 in
16:34 66.3 °F 47.1 °F 30.15 in WSW 3.5 mph 4.6 mph 50 % 0.00 in
16:39 66.1 °F 46.9 °F 30.15 in WSW 0.6 mph 4.6 mph 50 % 0.00 in
16:44 65.9 °F 46.2 °F 30.15 in South 2.4 mph 4.6 mph 49 % 0.00 in
16:49 65.7 °F 46.5 °F 30.15 in SW 2.4 mph 5.0 mph 50 % 0.00 in
16:54 65.6 °F 46.5 °F 30.15 in SSW 1.3 mph 3.5 mph 50 % 0.00 in
16:59 65.4 °F 46.3 °F 30.15 in WSW 2.4 mph 5.8 mph 50 % 0.00 in
17:04 65.2 °F 46.6 °F 30.15 in WNW 1.0 mph 3.5 mph 51 % 0.00 in
17:09 65.1 °F 46.5 °F 30.15 in WSW 3.7 mph 5.0 mph 51 % 0.00 in
17:14 64.9 °F 46.3 °F 30.15 in WSW 2.8 mph 5.8 mph 51 % 0.00 in
17:19 64.8 °F 46.2 °F 30.14 in WNW 1.5 mph 4.6 mph 51 % 0.00 in
17:24 64.7 °F 46.7 °F 30.15 in West 2.2 mph 4.0 mph 52 % 0.00 in
17:29 64.5 °F 46.0 °F 30.14 in WNW 1.2 mph 3.5 mph 51 % 0.00 in
17:34 64.4 °F 46.4 °F 30.14 in Calm     52 % 0.00 in
17:39 64.3 °F 47.3 °F 30.15 in Calm     54 % 0.00 in
17:44 64.2 °F 47.2 °F 30.15 in Calm   2.3 mph 54 % 0.00 in
17:49 64.1 °F 47.1 °F 30.15 in West 0.5 mph 2.0 mph 54 % 0.00 in
17:54 63.9 °F 46.4 °F 30.14 in West 0.1 mph 1.2 mph 53 % 0.00 in
17:59 63.8 °F 47.8 °F 30.14 in Calm     56 % 0.00 in
18:05 63.6 °F 47.1 °F 30.14 in Calm   1.2 mph 55 % 0.00 in
18:10 63.5 °F 48.0 °F 30.14 in Calm   1.2 mph 57 % 0.00 in
18:15 63.3 °F 48.3 °F 30.14 in Calm     58 % 0.00 in
18:20 63.1 °F 48.5 °F 30.14 in Calm     59 % 0.00 in
18:25 62.8 °F 48.7 °F 30.15 in Calm     60 % 0.00 in
18:30 62.5 °F 49.3 °F 30.15 in Calm     62 % 0.00 in
18:35 62.1 °F 49.8 °F 30.14 in Calm     64 % 0.00 in
18:40 61.8 °F 50.3 °F 30.14 in Calm     66 % 0.00 in
18:45 61.3 °F 50.2 °F 30.15 in Calm     67 % 0.00 in
18:50 60.9 °F 50.3 °F 30.15 in Calm     68 % 0.00 in
18:55 60.5 °F 49.9 °F 30.14 in West 0.3 mph 1.2 mph 68 % 0.00 in
19:00 60.1 °F 49.5 °F 30.14 in Calm     68 % 0.00 in
19:05 59.7 °F 49.5 °F 30.14 in Calm   1.2 mph 69 % 0.00 in
19:10 59.3 °F 49.1 °F 30.14 in Calm   1.2 mph 69 % 0.00 in
19:15 58.9 °F 49.1 °F 30.14 in Calm     70 % 0.00 in
19:20 58.5 °F 49.1 °F 30.14 in West 0.2 mph 1.2 mph 71 % 0.00 in
19:25 58.2 °F 49.2 °F 30.14 in Calm     72 % 0.00 in
19:30 57.7 °F 49.1 °F 30.14 in Calm     73 % 0.00 in
19:35 57.4 °F 48.8 °F 30.15 in Calm     73 % 0.00 in
19:40 57.0 °F 48.8 °F 30.15 in Calm     74 % 0.00 in
19:45 56.7 °F 48.9 °F 30.15 in West 0.1 mph 2.3 mph 75 % 0.00 in
19:50 56.4 °F 48.9 °F 30.15 in West 0.4 mph 1.2 mph 76 % 0.00 in
19:56 56.1 °F 49.0 °F 30.16 in Calm   2.0 mph 77 % 0.00 in
20:01 55.8 °F 49.0 °F 30.15 in Calm     78 % 0.00 in
20:06 55.5 °F 48.8 °F 30.16 in Calm   1.0 mph 78 % 0.00 in
20:11 55.3 °F 48.9 °F 30.15 in Calm   1.2 mph 79 % 0.00 in
20:16 55.0 °F 48.6 °F 30.16 in West 0.6 mph 1.0 mph 79 % 0.00 in
20:22 54.8 °F 48.7 °F 30.16 in West 0.1 mph 1.2 mph 80 % 0.00 in
20:27 54.6 °F 48.6 °F 30.16 in West 0.9 mph 2.0 mph 80 % 0.00 in
20:32 54.3 °F 48.6 °F 30.16 in Calm   1.2 mph 81 % 0.00 in
20:37 54.1 °F 48.4 °F 30.16 in West 0.2 mph 1.2 mph 81 % 0.00 in
20:42 53.9 °F 48.5 °F 30.16 in West 1.2 mph 2.3 mph 82 % 0.00 in
20:47 53.8 °F 48.4 °F 30.17 in Calm     82 % 0.00 in
20:52 53.6 °F 48.6 °F 30.17 in Calm     83 % 0.00 in
20:57 53.5 °F 48.5 °F 30.17 in Calm     83 % 0.00 in
21:02 53.3 °F 48.3 °F 30.17 in Calm     83 % 0.00 in
21:07 53.1 °F 48.1 °F 30.17 in Calm     83 % 0.00 in
21:12 53.0 °F 48.3 °F 30.17 in Calm     84 % 0.00 in
21:17 52.8 °F 48.1 °F 30.18 in Calm     84 % 0.00 in
21:22 52.6 °F 47.9 °F 30.18 in Calm     84 % 0.00 in
21:27 52.5 °F 47.8 °F 30.17 in Calm     84 % 0.00 in
21:32 52.4 °F 47.7 °F 30.18 in Calm     84 % 0.00 in
21:37 52.2 °F 47.8 °F 30.18 in Calm   2.3 mph 85 % 0.00 in
21:42 52.1 °F 47.7 °F 30.18 in West 0.3 mph 2.3 mph 85 % 0.00 in
21:47 51.9 °F 47.5 °F 30.18 in Calm     85 % 0.00 in
21:52 51.8 °F 47.7 °F 30.18 in West 0.1 mph 1.2 mph 86 % 0.00 in
21:57 51.7 °F 47.6 °F 30.18 in Calm     86 % 0.00 in
22:02 51.5 °F 47.5 °F 30.18 in Calm     86 % 0.00 in
22:07 51.4 °F 47.4 °F 30.18 in Calm     86 % 0.00 in
22:12 51.3 °F 47.6 °F 30.18 in Calm     87 % 0.00 in
22:18 51.2 °F 47.5 °F 30.18 in West 0.1 mph 1.2 mph 87 % 0.00 in
22:23 51.1 °F 47.7 °F 30.17 in Calm   1.2 mph 88 % 0.00 in
22:28 51.1 °F 47.7 °F 30.17 in Calm   1.2 mph 88 % 0.00 in
22:33 51.0 °F 47.6 °F 30.18 in Calm     88 % 0.00 in
22:38 51.0 °F 47.9 °F 30.18 in Calm     89 % 0.00 in
22:43 50.9 °F 47.8 °F 30.17 in Calm     89 % 0.00 in
22:48 50.9 °F 47.8 °F 30.17 in Calm     89 % 0.00 in
22:53 50.8 °F 47.4 °F 30.17 in Calm     88 % 0.00 in
22:58 50.8 °F 47.4 °F 30.17 in Calm     88 % 0.00 in
23:03 50.7 °F 47.3 °F 30.17 in Calm     88 % 0.00 in
23:08 50.6 °F 47.2 °F 30.17 in Calm     88 % 0.00 in
23:13 50.5 °F 47.1 °F 30.17 in Calm     88 % 0.00 in
23:18 50.4 °F 47.0 °F 30.17 in Calm     88 % 0.00 in
23:23 50.3 °F 46.9 °F 30.17 in Calm     88 % 0.00 in
23:28 50.2 °F 46.8 °F 30.17 in Calm     88 % 0.00 in
23:31 50.2 °F 46.8 °F 30.17 in Calm     88 % 0.00 in
23:36 50.1 °F 46.7 °F 30.17 in Calm     88 % 0.00 in
23:41 50.0 °F 46.6 °F 30.17 in Calm     88 % 0.00 in
23:46 49.9 °F 46.5 °F 30.17 in Calm     88 % 0.00 in
23:51 49.8 °F 46.4 °F 30.17 in Calm     88 % 0.00 in
23:56 49.7 °F 46.3 °F 30.17 in Calm     88 % 0.00 in
Crab Meadow Weather
Compliments of Weather Underground - 3 mb

Script developed by  Jim McMurry - jmcmurry@mwt.net Adapted for the template by  Wim van der Kuil - Leuven-Template.eu

Weather Terms: Frost Advisory - Widespread frost during the growing season. Frost generally occurs with fair skies and light winds.